Theta_e
319 318 319 319 320 320 319 319 319 320 320 320 319 320 320 320 320 321 321 323 324 324 323 321 320 321 323 323 323 324 325 328 329 331 344 355 356 357 356 355 354 351 349 349
320 320 319 319 319 319 319 318 319 320 320 320 320 320 320 321 322 322 322 323 324 325 325 326 324 323 323 323 324 324 325 326 326 332 332 339 350 353 355 355 356 353 352 350
321 321 321 319 319 319 319 320 320 319 320 321 321 321 322 322 322 322 323 324 323 324 324 326 326 323 322 322 323 323 323 321 326 329 330 330 332 344 352 352 353 354 353 353
320 321 320 320 319 319 320 320 319 319 320 320 320 322 324 323 324 324 325 324 323 324 324 323 323 322 322 321 321 321 323 326 327 328 327 331 332 336 343 350 352 353 354 353
319 320 320 320 319 319 318 319 319 319 320 321 321 322 322 324 324 325 326 326 326 325 324 322 321 321 321 320 321 323 324 322 322 328 327 332 327 328 333 334 336 348 355 354
319 319 319 319 319 318 318 318 319 320 320 323 322 323 323 324 326 326 325 326 324 322 321 320 320 320 320 320 320 320 322 324 326 323 324 330 332 333 336 334 338 337 349 354
318 318 319 319 319 319 319 320 321 323 323 324 323 324 327 330 327 325 325 325 323 321 320 320 320 320 320 319 319 320 320 321 324 323 326 327 329 333 334 338 339 337 345 347
323 325 320 318 318 320 319 320 324 327 329 327 326 327 327 327 326 325 323 323 322 320 320 320 319 320 318 318 319 320 321 322 323 324 326 328 327 331 332 333 337 341 341 341
323 323 321 322 323 321 321 322 322 326 327 330 328 325 326 326 326 325 324 322 319 319 321 319 318 319 318 318 319 320 319 321 323 322 327 329 330 333 332 333 335 337 344 344
321 325 323 323 322 323 321 321 323 325 336 332 327 326 327 327 326 323 322 321 319 320 318 318 319 319 318 319 318 318 322 322 321 324 323 325 326 330 331 334 333 337 338 343
321 325 325 323 324 325 325 322 322 324 327 333 332 327 326 325 323 323 323 322 320 319 317 318 318 317 318 318 317 317 320 319 322 321 322 323 326 326 328 329 334 337 338 342
320 323 325 322 321 322 323 325 324 332 332 330 333 332 326 327 323 324 320 319 318 319 319 318 318 318 318 318 318 317 319 320 320 321 322 324 324 327 327 325 327 331 327 336
322 324 327 324 323 322 322 323 323 323 326 325 328 326 322 324 322 322 323 322 321 321 319 319 318 318 319 318 318 317 317 318 318 319 320 321 323 323 323 320 324 320 329 335
316 321 324 326 324 325 326 326 324 323 327 326 325 323 321 322 323 322 322 319 318 319 319 318 321 319 318 318 318 317 317 316 317 317 318 318 321 321 321 319 318 319 322 327
320 321 319 319 318 319 319 320 320 322 322 323 321 321 321 321 321 320 318 319 319 319 319 319 319 320 319 317 316 317 316 316 315 316 317 317 319 322 321 320 318 316 316 319
320 322 320 320 318 318 319 319 318 319 319 318 318 318 317 317 317 319 319 318 317 317 316 317 317 317 317 316 315 315 315 316 316 316 316 315 315 319 322 320 319 316 315 315
319 320 320 321 318 321 323 320 319 318 318 317 318 318 319 319 318 318 317 317 316 315 315 314 314 313 313 311 310 311 311 312 314 314 315 315 315 315 319 319 318 316 315 316
317 316 319 323 319 323 318 317 317 317 316 316 318 319 319 318 317 315 315 314 314 313 313 313 313 312 310 309 309 309 309 310 311 312 313 314 314 315 315 319 318 317 316 316
316 317 319 321 322 319 317 319 321 320 319 319 318 317 317 316 314 314 314 313 312 312 312 310 309 308 307 306 305 305 306 306 307 309 310 312 312 314 314 319 319 317 316 317
317 316 317 319 325 324 321 319 317 316 317 318 316 315 315 314 315 314 313 311 311 310 309 308 306 305 304 304 304 304 303 305 306 306 307 309 311 313 313 316 320 320 318 317
320 317 317 318 319 318 318 318 316 318 319 316 314 314 313 313 312 312 310 310 310 308 306 305 304 303 302 302 302 302 303 304 304 305 306 307 309 310 312 313 317 320 320 319
320 322 322 320 325 323 317 317 319 317 316 314 313 312 311 310 310 310 310 309 308 306 303 301 300 299 300 300 300 300 301 302 302 303 305 305 307 307 310 312 314 319 320 319
323 321 322 321 321 319 317 317 314 314 313 312 310 309 310 310 310 308 309 306 303 301 300 298 298 298 298 298 297 298 298 299 301 302 302 305 304 307 308 311 313 317 319 320
317 316 318 317 316 316 316 314 313 311 311 310 309 310 309 308 307 307 304 301 300 298 297 296 296 296 296 296 296 296 297 298 300 302 303 303 306 306 308 309 312 315 318 318
314 314 315 315 315 314 314 313 311 311 309 308 309 308 306 307 305 303 301 299 297 296 295 295 295 295 295 295 296 296 297 298 300 302 303 304 305 306 307 308 310 313 314 316
314 315 318 318 313 313 312 311 310 309 308 310 308 306 306 304 302 300 298 296 295 294 294 294 294 295 296 296 296 296 297 299 300 302 303 305 306 307 307 308 309 310 311 313
Wind_Speed
14 11 13 17 18 18 20 20 15 10 14 16 17 14 16 15 14 14 13 13 13 12 12 15 12 10 5 11 10 8 9 10 14 17 15 20 25 25 27 30 30 28 35 35
13 14 16 17 16 18 18 18 14 16 16 13 13 15 15 17 18 16 14 13 12 10 10 9 5 12 11 12 14 14 13 15 16 14 19 19 20 26 29 30 31 37 32 38
16 16 18 16 16 16 14 14 15 17 16 16 14 17 17 20 20 19 18 13 10 9 6 5 7 9 8 8 9 14 16 18 17 15 17 22 25 25 24 26 33 35 38 36
15 17 17 11 13 15 17 16 17 17 14 13 15 15 19 14 17 19 16 12 10 11 8 4 2 2 6 8 11 15 12 14 16 18 20 21 24 21 21 29 28 33 40 43
15 17 16 15 19 14 14 14 15 15 14 15 17 12 15 18 19 18 15 17 13 12 5 3 2 5 9 12 16 14 9 12 18 19 21 22 23 25 26 28 31 37 37 44
19 18 12 10 12 15 15 16 14 14 13 15 18 18 16 17 18 11 8 16 8 6 4 2 3 5 8 13 13 16 19 13 10 17 21 23 25 25 26 31 30 32 30 41
14 18 18 12 12 14 7 8 9 13 14 15 20 18 12 11 11 7 5 7 8 5 2 3 5 6 9 15 16 12 16 22 15 19 20 22 28 28 30 31 31 33 31 34
12 14 16 12 15 14 16 14 11 18 14 16 21 15 14 14 11 5 3 6 3 1 1 6 7 7 14 16 15 16 16 20 16 16 23 21 26 30 30 31 32 33 37 40
9 16 16 13 16 13 13 14 12 9 12 13 14 22 20 18 11 2 1 3 4 5 6 8 9 11 11 15 14 15 21 24 18 14 21 21 24 29 32 34 34 34 38 39
8 11 11 15 17 17 14 10 7 7 5 12 12 14 10 9 13 6 4 2 6 9 9 9 9 12 11 13 12 19 16 16 18 15 18 21 28 29 32 34 36 37 40 37
9 8 9 15 12 13 13 12 11 10 12 9 12 10 12 12 6 8 11 12 12 11 11 12 13 12 11 13 13 16 17 17 16 19 19 22 22 27 30 33 30 37 36 36
2 4 9 18 18 17 17 17 10 5 6 10 10 15 16 12 13 14 10 12 14 14 14 14 12 13 10 12 11 14 13 13 16 14 19 18 17 22 25 30 27 23 34 43
3 1 8 11 15 14 15 16 14 13 13 18 14 13 10 9 15 14 17 20 17 14 15 13 13 9 10 15 13 15 14 14 13 16 15 22 15 20 20 29 23 29 40 35
4 10 13 11 12 3 4 12 16 15 9 13 16 22 19 17 19 18 15 17 15 12 9 6 9 10 14 23 23 20 18 17 13 19 15 17 22 21 24 29 27 30 29 35
2 10 15 17 20 23 23 20 18 19 21 20 20 24 21 20 19 18 16 12 14 15 16 12 10 11 8 11 17 22 25 26 18 17 16 19 22 23 26 29 22 32 30 37
4 4 11 18 21 23 24 23 22 23 22 23 23 23 19 16 13 17 17 17 17 18 19 19 19 18 14 18 22 23 25 27 25 22 21 20 25 26 22 26 22 15 23 31
1 4 7 13 17 15 16 22 22 21 19 13 13 15 18 17 17 16 17 18 19 18 19 19 18 16 18 25 29 29 31 28 29 30 26 25 24 27 24 20 23 21 13 18
4 7 3 6 15 11 8 6 7 10 8 10 15 13 13 16 17 19 20 18 18 19 21 19 17 20 26 28 29 31 32 30 28 30 31 35 27 25 26 18 19 18 7 15
14 7 3 4 6 14 18 6 9 4 9 15 12 15 17 20 23 20 18 21 21 20 20 20 26 27 30 34 38 38 38 39 36 30 35 33 33 30 27 23 18 23 14 21
13 11 4 3 4 3 5 1 5 9 11 14 15 16 19 20 15 14 20 21 22 24 25 24 31 34 37 36 35 35 35 31 26 28 33 37 36 33 27 26 22 21 16 19
5 4 9 7 5 8 5 8 9 7 6 17 17 17 19 17 14 21 22 24 21 21 31 36 33 33 36 32 33 33 32 29 32 33 32 30 31 33 31 29 26 17 15 16
8 4 5 7 6 5 12 10 8 9 12 15 18 19 20 20 22 23 23 22 24 26 26 34 29 31 34 30 28 28 27 31 32 32 31 30 28 34 27 23 26 19 16 15
3 6 4 4 3 4 6 2 4 9 13 15 17 19 19 21 22 24 23 25 21 24 26 31 28 30 31 28 27 27 30 30 28 28 29 29 29 28 28 26 23 22 17 13
3 4 4 3 5 4 6 4 14 14 14 16 18 18 18 22 23 22 20 20 20 19 20 29 28 22 25 28 27 28 29 28 26 24 23 24 26 22 19 21 25 23 17 15
8 4 7 10 13 10 10 16 16 16 17 18 19 19 20 20 19 20 20 21 19 21 28 28 24 21 25 28 27 26 25 24 22 23 20 21 21 20 20 18 24 22 20 21
7 4 2 2 8 8 12 15 16 16 17 18 19 20 19 18 20 20 19 18 20 18 29 25 26 25 27 27 25 24 23 21 19 17 14 13 16 15 18 15 20 17 13 17
Wind_Direction
206 232 224 228 227 246 265 282 296 282 229 196 208 225 244 250 248 246 221 223 226 227 224 220 236 231 34 28 358 351 335 301 288 294 279 224 226 228 228 233 233 233 222 208
246 221 246 243 242 244 245 266 277 284 293 293 273 263 265 263 262 260 260 252 247 247 230 205 137 54 30 4 346 339 322 301 277 268 277 277 252 233 230 230 231 231 229 211
233 245 219 236 264 261 255 268 268 264 275 270 254 259 258 254 251 251 254 250 251 260 264 96 55 28 351 325 326 317 308 303 299 286 279 279 282 269 247 237 233 231 227 222
250 245 263 215 244 261 262 241 250 259 266 266 264 269 258 265 246 226 225 221 235 236 213 119 54 331 320 327 318 303 298 321 315 306 279 260 264 275 269 239 243 227 225 222
262 245 256 260 261 245 263 270 273 268 267 271 263 265 266 260 252 248 229 195 197 216 176 136 218 349 314 322 292 300 284 304 309 311 300 286 269 274 281 273 268 238 227 219
290 279 301 292 288 251 253 270 266 262 266 257 255 254 260 260 261 267 342 170 147 102 49 355 352 306 303 295 319 314 318 286 288 308 302 301 284 269 267 273 279 260 247 220
281 283 289 256 254 281 226 255 259 252 243 249 245 245 255 327 330 349 228 144 109 89 347 320 269 291 312 303 293 305 304 306 304 303 286 291 292 285 262 258 264 266 259 242
275 270 246 255 261 288 260 247 248 275 282 290 309 287 283 309 321 208 209 284 63 73 261 287 290 320 292 288 305 309 306 293 297 308 296 284 290 284 278 262 252 256 256 257
277 272 279 270 290 259 265 263 297 326 304 280 267 283 286 284 341 330 206 245 287 242 254 264 293 279 291 306 300 312 302 285 272 282 306 300 303 288 272 270 264 257 254 252
273 300 305 305 294 290 272 276 270 261 282 275 267 278 276 357 315 16 303 240 257 255 265 272 266 268 284 287 289 284 287 326 311 314 312 321 312 305 305 273 259 259 262 261
273 249 274 293 277 248 261 242 251 255 249 257 278 270 304 359 299 311 294 300 305 306 292 275 263 271 275 281 287 298 307 306 314 318 328 304 306 309 309 303 293 262 261 262
292 276 261 270 282 270 242 271 257 254 255 266 270 270 282 301 336 344 305 297 284 269 273 284 289 286 276 275 277 285 284 290 295 310 308 308 326 318 326 324 313 332 300 275
322 281 276 273 244 242 257 241 258 269 251 264 270 275 292 207 265 272 279 271 267 277 274 291 292 284 266 266 265 270 280 284 294 294 302 305 304 318 331 336 330 318 304 264
341 264 261 269 298 189 269 304 304 287 262 269 260 282 289 294 298 294 296 302 306 316 330 335 328 323 314 320 325 324 298 278 287 280 288 288 305 300 309 320 346 342 319 315
326 268 271 279 287 288 283 270 248 253 262 264 277 276 285 290 290 284 289 356 337 324 322 331 325 308 275 281 290 308 274 283 280 285 284 298 295 276 289 300 319 334 332 335
152 249 261 275 273 272 272 273 271 266 268 272 278 281 279 296 331 351 345 348 334 323 322 334 354 348 342 345 341 333 324 324 320 283 273 279 286 287 276 286 287 321 336 325
258 285 296 271 280 294 264 256 261 264 265 291 303 338 340 347 360 351 329 324 320 338 331 331 326 319 321 321 317 309 306 309 312 301 301 271 264 274 275 275 277 280 289 303
235 276 287 289 284 267 295 270 291 286 290 305 352 342 342 333 328 323 317 317 348 332 320 315 314 313 312 310 309 306 302 300 289 287 286 288 280 264 273 259 267 270 263 267
201 216 261 254 273 289 282 321 8 4 310 37 357 341 330 328 327 311 322 342 326 320 317 312 311 316 309 300 296 288 282 275 271 273 275 278 280 281 270 250 241 259 233 260
191 204 199 277 258 272 11 223 312 325 284 13 344 333 332 329 311 310 328 318 319 312 308 317 309 299 296 292 289 284 279 282 278 276 272 267 267 273 275 264 230 231 230 240
180 192 220 231 241 264 14 329 313 271 327 335 338 332 326 318 310 316 317 308 300 322 319 311 308 299 291 289 292 284 281 274 273 260 263 267 266 274 268 276 247 215 226 226
184 214 205 227 232 247 5 353 345 356 337 341 334 328 324 315 311 309 306 321 326 317 314 306 300 295 293 293 287 284 280 280 279 271 264 254 261 264 279 274 252 219 205 214
228 206 180 211 286 59 248 130 29 353 343 333 326 324 319 317 313 317 324 321 314 309 306 306 301 299 298 296 288 281 280 279 275 272 265 258 247 256 263 283 262 220 205 206
264 56 255 271 63 348 282 13 5 348 337 335 332 329 322 320 323 326 319 313 311 310 311 308 304 300 298 295 288 281 283 281 276 271 267 258 239 240 249 260 262 225 207 205
269 252 279 265 55 311 352 356 345 332 344 332 331 334 328 333 330 321 317 316 314 313 312 310 305 299 295 296 290 286 284 278 272 271 257 270 240 230 235 252 264 224 211 211
351 343 357 336 13 349 340 324 332 342 340 338 337 332 340 341 326 323 317 316 314 312 313 311 308 303 301 300 294 292 288 283 272 269 273 241 233 216 224 222 258 253 221 219